CZ-4C R/B, 44623

Orbit data source: Space-Track

CZ-4C R/B, 44623 is space debris in SSO originally from a launch on Fri, 04 Oct 2019 UTC launched from the Taiyaun Space Center, China (TSC). Debris objects in space refer to the collection of defunct objects orbiting the Earth. Examples of debris include non-operational satellites, rocket bodies, and fragments generated from explosions, collisions, or faulty payload assembly.

Not visible in the next 10 days
Identifier
44623, 2019-066B
Orbit
SSO
Country
Flag of CNCN / PRC
Related business
Manufacturer
SAST
Mission
Spacecraft
Bus & Motor
CZ-4 STAGE 3, Unknown motor
Mass
~1,000 kg wet, ~1,000 kg dry
Launch date (UTC)
2019-10-04 (6 years ago)
Launch vehicle
Unknown
Launch site
Taiyaun Space Center, China (TSC)
Object type
Payload
Rocket body
Debris
Shape & HBR
Cyl, 1.4 m
Radar Cross Section
7.676 m², Large (>1 m²)

Expand to show TLE details & history
Last TLE update: 14 hours ago

TLE from 14 hours ago
0 CZ-4C R/B
1 44623U 19066B   25250.21065864  .00089299  00000-0  61104-3 0  9999
2 44623  97.7861 334.4524 0035126  41.3135 319.0775 15.73626861330090
Epoch: 2025-09-07T05:03Z
TLE epoch observation values (Epoch: 2025-09-07T05:03:20.906Z)
Latitude
-0.00005°
Longitude
-87.9181°
Altitude
333.871 km
Speed
7.718 km/s
True Right ascension
22h 17m 48s
True Declination
0° 00' 00"
Sunlit
Object was in full shadow at epoch
Visualization orbit readout
Latitude
Unknown
Longitude
Unknown
Altitude
Unknown
Speed
Unknown
Apparent Right ascension
Unknown
Apparent Declination
Unknown
Sunlit
N/A
Visualization observer readout
Local Sidereal Time
11:30:21
Azimuth
Unknown
Elevation
Unknown
Doppler factor
Unknown
Orbital elements
Apogee altitude
369.07 km
Perigee altitude
321.836 km
Semi-major axis
6,723.59 km
Eccentricity
0.00351
Inclination
97.7861°
RAAN
334.4524°
Arg. of periapsis
41.3135°
True anomaly
318.81296°
Mean anomaly
319.0775°
Eccentric anomaly
318.94532°
Mean motion
3.93678 °/min
Orbital period
91.45 mins
BSTAR
0.00061104
Loading maneuver chart data...
Computing Atmospheric mass density...
Loading historical data...
Loading historical data...
Loading historical data...
Loading historical data...
Loading historical data...
Loading historical data...
Loading historical data...
Other satellites on launch #66 in the year 2019 (2019-10-04 UTC)

Documentation

Showing up to 5 results
|